Location: Cz?stochówka
(50.8142°N, 19.0915°E)
Time: 06:07:03
(UTC+00:00)

USA 234 - Pass Details

Date: 13 January 2026
Orbit: 1102 x 1106 km, 123.0° (Epoch: 4 January)

Event Time Altitude Azimuth Distance (km) Brightness Sun altitude
Rises 04:50:39 0° 57° (ENE) 3,934 6.8 -16.7°
Reaches altitude 10° 04:53:17 10° 64° (ENE) 2,973 6.3 -16.3°
Maximum altitude 04:59:31 44° 136° (SE) 1,481 4.4 -15.4°
Drops below altitude 10° 05:05:43 10° 207° (SSW) 2,958 5.4 -14.4°
Sets 05:08:19 0° 214° (SSW) 3,912 6.0 -14.0°
